Time,TemperatureF,DewpointF,PressureIn,WindDirection,WindDirectionDegrees,WindSpeedMPH,WindSpeedGustMPH,Humidity,HourlyPrecipIn,Conditions,Clouds,dailyrainin,SolarRadiationWatts/m^2,SoftwareType,DateUTC
2013-10-16 00:43:00,32.0,25.0,-100.00,SE,141,9.0,11.0,75,0.00,,,0.00,0.000000,,2013-10-16 06:43:00,
2013-10-16 00:52:00,32.0,25.0,-100.00,SE,141,9.0,11.0,75,0.00,,,0.00,0.000000,,2013-10-16 06:52:00,
2013-10-16 01:42:00,31.0,24.0,-100.00,SE,139,9.0,11.0,75,0.00,,,0.00,0.000000,,2013-10-16 07:42:00,
2013-10-16 01:52:00,31.0,24.0,-100.00,SE,139,9.0,11.0,75,0.00,,,0.00,0.000000,,2013-10-16 07:52:00,
2013-10-16 02:21:00,30.0,24.0,-100.00,SE,141,8.0,12.0,78,0.00,,,0.00,0.000000,,2013-10-16 08:21:00,
2013-10-16 02:32:00,30.0,24.0,-100.00,SE,141,8.0,12.0,78,0.00,,,0.00,0.000000,,2013-10-16 08:32:00,
2013-10-16 02:42:00,30.0,24.0,-100.00,SE,141,8.0,12.0,78,0.00,,,0.00,0.000000,,2013-10-16 08:42:00,
2013-10-16 02:52:00,30.0,24.0,-100.00,SE,141,8.0,12.0,78,0.00,,,0.00,0.000000,,2013-10-16 08:52:00,
2013-10-16 03:43:00,29.0,23.0,-100.00,SE,141,8.0,10.0,79,0.00,,,0.00,0.000000,,2013-10-16 09:43:00,
2013-10-16 03:53:00,29.0,23.0,-100.00,SE,141,8.0,10.0,79,0.00,,,0.00,0.000000,,2013-10-16 09:53:00,
2013-10-16 04:42:00,31.0,24.0,-100.00,SE,136,9.0,10.0,74,0.00,,,0.00,0.000000,,2013-10-16 10:42:00,
2013-10-16 04:53:00,31.0,24.0,-100.00,SE,136,9.0,10.0,74,0.00,,,0.00,0.000000,,2013-10-16 10:53:00,
2013-10-16 05:42:00,30.0,21.0,-100.00,SE,138,8.0,10.0,70,0.00,,,0.00,0.000000,,2013-10-16 11:42:00,
2013-10-16 05:52:00,30.0,21.0,-100.00,SE,138,8.0,10.0,70,0.00,,,0.00,0.000000,,2013-10-16 11:52:00,
2013-10-16 06:42:00,29.0,21.0,-100.00,SE,129,8.0,10.0,73,0.00,,,0.00,0.000000,,2013-10-16 12:42:00,
2013-10-16 06:52:00,29.0,21.0,-100.00,SE,129,8.0,10.0,73,0.00,,,0.00,0.000000,,2013-10-16 12:52:00,
2013-10-16 07:42:00,30.0,21.0,-100.00,SE,124,7.0,9.0,69,0.00,,,0.00,0.000000,,2013-10-16 13:42:00,
2013-10-16 07:52:00,30.0,21.0,-100.00,SE,124,7.0,9.0,69,0.00,,,0.00,0.000000,,2013-10-16 13:52:00,
2013-10-16 08:42:00,31.0,21.0,-100.00,SE,129,6.0,10.0,66,0.00,,,0.00,13.000000,,2013-10-16 14:42:00,
2013-10-16 08:52:00,31.0,21.0,-100.00,SE,129,6.0,10.0,66,0.00,,,0.00,13.000000,,2013-10-16 14:52:00,
2013-10-16 09:22:00,35.0,25.0,-100.00,SSE,148,7.0,8.0,66,0.00,,,0.00,148.000000,,2013-10-16 15:22:00,
2013-10-16 09:33:00,35.0,25.0,-100.00,SSE,148,7.0,8.0,66,0.00,,,0.00,148.000000,,2013-10-16 15:33:00,
2013-10-16 09:43:00,35.0,25.0,-100.00,SSE,148,7.0,8.0,66,0.00,,,0.00,148.000000,,2013-10-16 15:43:00,
2013-10-16 09:53:00,35.0,25.0,-100.00,SSE,148,7.0,8.0,66,0.00,,,0.00,148.000000,,2013-10-16 15:53:00,
2013-10-16 10:23:00,41.0,27.0,-100.00,SE,146,7.0,9.0,57,0.00,,,0.00,307.000000,,2013-10-16 16:23:00,
2013-10-16 10:32:00,41.0,27.0,-100.00,SE,146,7.0,9.0,57,0.00,,,0.00,307.000000,,2013-10-16 16:32:00,
2013-10-16 10:42:00,41.0,27.0,-100.00,SE,146,7.0,9.0,57,0.00,,,0.00,307.000000,,2013-10-16 16:42:00,
2013-10-16 10:53:00,41.0,27.0,-100.00,SE,146,7.0,9.0,57,0.00,,,0.00,307.000000,,2013-10-16 16:53:00,
2013-10-16 11:22:00,48.0,30.0,-100.00,SSW,212,3.0,7.0,49,0.00,,,0.00,440.000000,,2013-10-16 17:22:00,
2013-10-16 11:33:00,48.0,30.0,-100.00,SSW,212,3.0,7.0,49,0.00,,,0.00,440.000000,,2013-10-16 17:33:00,
2013-10-16 11:43:00,48.0,30.0,-100.00,SSW,212,3.0,7.0,49,0.00,,,0.00,440.000000,,2013-10-16 17:43:00,
2013-10-16 11:52:00,48.0,30.0,-100.00,SSW,212,3.0,7.0,49,0.00,,,0.00,440.000000,,2013-10-16 17:52:00,
2013-10-16 12:42:00,52.0,32.0,-100.00,WNW,287,5.0,7.0,47,0.00,,,0.00,535.000000,,2013-10-16 18:42:00,
2013-10-16 12:52:00,52.0,32.0,-100.00,WNW,287,5.0,7.0,47,0.00,,,0.00,535.000000,,2013-10-16 18:52:00,
2013-10-16 13:21:00,56.0,28.0,-100.00,WNW,287,17.0,24.0,34,0.00,,,0.00,581.000000,,2013-10-16 19:21:00,
2013-10-16 13:32:00,56.0,28.0,-100.00,WNW,287,17.0,24.0,34,0.00,,,0.00,581.000000,,2013-10-16 19:32:00,
2013-10-16 13:42:00,56.0,28.0,-100.00,WNW,287,17.0,24.0,34,0.00,,,0.00,581.000000,,2013-10-16 19:42:00,
2013-10-16 13:52:00,56.0,28.0,-100.00,WNW,287,17.0,24.0,34,0.00,,,0.00,581.000000,,2013-10-16 19:52:00,
2013-10-16 14:22:00,58.0,29.0,-100.00,NW,313,11.0,25.0,33,0.00,,,0.00,559.000000,,2013-10-16 20:22:00,
2013-10-16 14:32:00,58.0,29.0,-100.00,NW,313,11.0,25.0,33,0.00,,,0.00,559.000000,,2013-10-16 20:32:00,
2013-10-16 14:43:00,58.0,29.0,-100.00,NW,313,11.0,25.0,33,0.00,,,0.00,559.000000,,2013-10-16 20:43:00,
2013-10-16 14:52:00,58.0,29.0,-100.00,NW,313,11.0,25.0,33,0.00,,,0.00,559.000000,,2013-10-16 20:52:00,
2013-10-16 15:23:00,56.0,27.0,-100.00,NW,304,13.0,23.0,33,0.00,,,0.00,451.000000,,2013-10-16 21:23:00,
2013-10-16 15:34:00,56.0,27.0,-100.00,NW,304,13.0,23.0,33,0.00,,,0.00,451.000000,,2013-10-16 21:34:00,
2013-10-16 15:44:00,56.0,27.0,-100.00,NW,304,13.0,23.0,33,0.00,,,0.00,451.000000,,2013-10-16 21:44:00,
2013-10-16 15:54:00,56.0,27.0,-100.00,NW,304,13.0,23.0,33,0.00,,,0.00,451.000000,,2013-10-16 21:54:00,
2013-10-16 16:42:00,56.0,27.0,-100.00,WNW,299,13.0,21.0,33,0.00,,,0.00,249.000000,,2013-10-16 22:42:00,
2013-10-16 16:54:00,56.0,27.0,-100.00,WNW,299,13.0,21.0,33,0.00,,,0.00,249.000000,,2013-10-16 22:54:00,
2013-10-16 17:42:00,51.0,24.0,-100.00,WNW,301,20.0,31.0,34,0.00,,,0.00,145.000000,,2013-10-16 23:42:00,
2013-10-16 17:52:00,51.0,24.0,-100.00,WNW,301,20.0,31.0,34,0.00,,,0.00,145.000000,,2013-10-16 23:52:00,
2013-10-16 18:22:00,47.0,32.0,-100.00,NW,325,13.0,26.0,56,0.00,,,0.00,37.000000,,2013-10-17 00:22:00,
2013-10-16 18:32:00,47.0,32.0,-100.00,NW,325,13.0,26.0,56,0.00,,,0.00,37.000000,,2013-10-17 00:32:00,
2013-10-16 18:42:00,47.0,32.0,-100.00,NW,325,13.0,26.0,56,0.00,,,0.00,37.000000,,2013-10-17 00:42:00,
2013-10-16 18:52:00,47.0,32.0,-100.00,NW,325,13.0,26.0,56,0.00,,,0.00,37.000000,,2013-10-17 00:52:00,
2013-10-16 19:42:00,45.0,35.0,-100.00,WNW,301,15.0,25.0,69,0.00,,,0.00,1.000000,,2013-10-17 01:42:00,
2013-10-16 19:52:00,45.0,35.0,-100.00,WNW,301,15.0,25.0,69,0.00,,,0.00,1.000000,,2013-10-17 01:52:00,
2013-10-16 20:53:00,41.0,37.0,-100.00,NW,323,7.0,19.0,84,0.00,,,0.00,0.000000,,2013-10-17 02:53:00,
2013-10-16 21:22:00,39.0,36.0,-100.00,NNW,341,7.0,15.0,89,0.04,,,0.04,0.000000,,2013-10-17 03:22:00,
2013-10-16 21:34:00,39.0,36.0,-100.00,NNW,341,7.0,15.0,89,0.04,,,0.04,0.000000,,2013-10-17 03:34:00,
2013-10-16 21:44:00,39.0,36.0,-100.00,NNW,341,7.0,15.0,89,0.04,,,0.04,0.000000,,2013-10-17 03:44:00,
2013-10-16 21:54:00,39.0,36.0,-100.00,NNW,341,7.0,15.0,89,0.04,,,0.04,0.000000,,2013-10-17 03:54:00,
2013-10-16 22:43:00,39.0,36.0,-100.00,NNW,337,7.0,15.0,89,0.01,,,0.05,0.000000,,2013-10-17 04:43:00,
2013-10-16 22:54:00,39.0,36.0,-100.00,NNW,337,7.0,15.0,89,0.01,,,0.05,0.000000,,2013-10-17 04:54:00,
2013-10-16 23:42:00,37.0,34.0,-100.00,NNW,330,6.0,14.0,90,0.02,,,0.07,0.000000,,2013-10-17 05:42:00,
2013-10-16 23:52:00,37.0,34.0,-100.00,NNW,330,6.0,14.0,90,0.02,,,0.07,0.000000,,2013-10-17 05:52:00,